Wind_Speed
3 4 5 5 6 6 7 7 8 7 7 8 9 9 10 11 12 12 12 11 10 10 9 8 8 9 9 8 8 7 6 5 4 4 3 3 3 3 3 4 5 5 5 5
3 4 4 4 5 5 6 7 7 7 7 8 9 9 9 9 11 12 12 11 11 10 9 8 8 7 8 8 7 6 6 5 5 4 3 3 3 2 3 3 4 5 5 5
4 4 4 3 4 4 4 5 5 6 7 8 8 8 9 9 10 11 11 12 12 10 8 8 8 8 8 8 7 6 6 6 5 4 3 4 3 2 2 3 4 4 4 4
4 4 3 3 3 3 3 3 4 5 6 6 6 6 7 8 9 10 10 11 11 10 9 8 8 8 8 8 8 7 6 6 5 4 4 4 4 3 3 3 4 4 4 4
4 4 3 3 2 3 3 3 3 3 4 4 5 6 6 7 8 9 10 10 11 10 9 9 9 9 9 8 8 7 7 6 5 5 5 5 5 4 3 3 3 4 4 4
4 4 4 3 3 3 3 3 2 2 3 3 3 5 5 5 6 8 9 9 9 10 9 10 10 10 9 9 8 7 7 7 6 5 5 5 5 5 5 4 4 4 4 4
4 4 4 4 4 3 3 2 1 0 1 2 3 5 5 5 6 7 8 8 8 9 9 10 10 10 10 9 9 8 8 8 7 6 6 6 6 6 6 5 5 5 5 5
4 4 4 4 4 4 3 3 2 1 1 2 3 5 4 4 5 7 7 7 7 8 9 10 10 11 11 10 9 9 9 8 7 7 7 7 7 7 7 6 6 5 6 6
5 6 5 4 4 4 4 4 3 3 2 2 3 5 5 4 5 5 6 7 7 8 8 9 9 10 10 10 10 10 10 9 8 8 8 9 8 8 7 7 6 6 6 7
7 6 5 4 4 5 5 4 5 5 4 4 4 5 5 5 5 5 6 7 8 8 9 9 9 10 10 10 10 10 9 9 8 9 9 8 8 8 7 7 7 7 7 7
7 7 5 5 5 5 5 6 6 6 5 5 5 6 6 5 6 6 6 7 8 8 9 8 9 9 9 9 9 9 9 9 9 8 8 9 8 8 8 8 8 8 8 8
8 7 6 5 6 6 6 7 7 8 7 7 7 7 6 6 7 7 7 8 8 8 8 9 9 9 9 9 9 9 8 9 9 10 10 10 9 9 9 9 10 10 9 9
9 9 7 7 8 7 7 8 8 8 8 8 7 6 7 8 7 7 7 8 7 8 8 8 9 9 8 8 8 8 8 8 9 9 10 10 10 10 11 11 11 11 11 11
11 10 9 9 9 9 9 9 9 9 8 9 9 8 8 8 8 7 7 7 7 8 8 8 9 9 8 8 9 8 8 8 9 10 10 10 11 12 12 12 13 13 13 13
13 12 11 11 10 10 10 10 10 10 10 10 11 11 9 8 8 8 8 7 8 9 9 9 9 9 9 10 10 10 10 10 10 10 11 11 12 12 12 13 13 14 14 15
15 13 13 12 11 11 10 10 11 11 11 12 12 12 11 10 9 8 8 8 8 9 10 10 11 10 10 11 11 11 11 11 11 12 12 12 12 13 13 13 13 14 15 15
15 14 14 12 11 11 10 10 11 11 11 12 13 12 12 11 10 9 9 9 9 10 11 11 11 11 11 12 13 13 13 13 13 13 13 13 13 14 14 14 15 15 16 16
16 15 15 14 13 13 11 12 12 12 12 12 13 13 13 11 11 10 10 10 10 10 11 11 12 12 12 13 14 14 14 14 14 14 14 14 14 15 15 16 16 16 16 16
18 17 17 16 15 15 13 13 13 13 12 13 13 13 13 12 12 11 10 10 10 10 11 12 12 12 13 13 14 15 15 16 16 16 16 16 16 16 17 17 16 16 17 17
20 19 19 18 17 17 14 15 14 14 13 13 14 13 13 12 13 12 11 11 11 11 12 12 13 13 14 14 15 15 16 17 17 17 17 18 18 17 17 17 17 18 18 19
21 21 20 19 19 18 16 17 16 15 14 15 14 14 14 13 14 13 13 12 12 12 12 12 13 13 13 14 15 15 16 17 17 17 18 18 18 18 18 18 19 19 20 20
23 23 22 21 21 20 18 18 17 16 16 17 17 16 16 15 15 15 14 14 14 14 14 14 14 14 14 15 15 15 16 17 17 17 17 18 18 19 19 20 20 20 20 20
26 24 23 24 22 20 20 20 18 18 18 18 18 18 17 17 16 15 15 15 15 15 16 16 16 16 16 16 16 16 16 17 18 18 18 19 19 20 20 20 21 21 21 22
27 25 25 25 24 23 22 21 21 22 21 21 20 19 18 18 17 17 16 16 17 17 17 18 18 18 18 18 17 18 18 18 18 19 20 20 20 21 21 21 22 22 22 23
27 27 27 27 26 26 26 25 24 22 22 23 22 21 20 20 19 19 18 18 18 18 18 18 19 19 19 19 19 19 20 20 21 21 21 22 22 22 22 23 23 23 24 24
29 29 29 29 28 28 28 26 25 24 24 24 23 22 22 22 21 21 21 20 20 20 20 20 20 20 20 20 21 21 21 22 22 22 23 23 24 24 24 24 25 25 26 26
Wind_Direction
307 298 279 259 258 263 261 257 249 241 244 236 233 239 239 239 236 233 231 229 226 224 226 228 225 225 220 218 219 219 221 228 240 254 268 287 307 331 353 2 2 1 4 11
299 298 291 270 261 273 265 250 242 240 241 241 242 243 242 241 237 232 232 231 229 225 223 228 221 223 219 215 218 222 223 226 238 252 262 280 296 318 345 354 354 354 357 4
301 303 295 266 250 265 268 257 248 245 250 249 251 243 240 239 239 238 238 235 233 230 227 228 219 220 219 215 218 222 226 230 241 254 263 275 286 297 324 339 340 344 350 357
284 297 301 261 256 256 258 253 245 244 250 247 242 245 235 235 243 241 237 235 232 234 232 226 223 223 212 215 219 224 230 235 246 258 267 269 273 282 307 325 331 342 347 348
274 282 289 267 245 249 231 230 255 267 254 237 232 245 241 244 248 246 236 231 228 230 226 223 219 212 209 216 222 225 230 237 246 255 265 269 266 268 288 307 317 330 336 338
275 271 271 263 232 224 224 235 236 237 257 257 250 256 253 255 251 241 230 227 224 224 224 221 215 211 214 218 223 227 232 238 246 254 264 267 265 265 275 288 301 314 320 324
275 270 259 254 237 224 225 222 181 216 292 281 278 270 272 258 245 237 233 229 227 219 223 219 217 218 217 221 231 238 241 243 249 252 260 265 265 267 271 277 288 298 305 310
253 263 267 262 249 230 220 212 188 196 248 280 280 282 290 273 251 244 241 233 224 222 225 221 223 222 222 227 235 242 245 246 249 254 263 264 265 272 273 276 282 287 290 294
247 251 256 255 245 244 229 213 209 218 239 257 287 294 288 272 259 249 243 230 222 225 228 220 223 223 226 232 237 243 246 248 252 259 264 265 263 270 274 276 279 285 289 290
245 244 245 238 237 238 234 220 210 215 225 230 252 273 280 276 266 257 244 232 228 229 225 222 221 225 230 235 241 246 246 251 257 258 261 262 259 265 269 273 275 279 287 286
237 236 241 244 248 248 232 221 215 224 227 229 239 254 277 285 278 268 255 242 236 230 223 223 226 228 235 241 246 244 247 250 254 256 257 256 255 260 265 272 270 275 283 285
237 235 237 252 258 251 240 232 225 224 225 229 247 263 276 282 276 263 254 246 241 232 231 230 231 237 240 246 249 250 252 252 255 255 256 259 257 263 269 272 273 275 279 282
238 233 234 246 260 255 246 240 233 231 232 232 246 263 271 275 274 263 252 241 234 236 236 233 234 237 240 246 249 251 255 258 257 255 257 262 263 267 272 273 273 276 276 278
238 236 234 244 256 262 258 248 241 236 232 232 242 256 263 271 267 259 251 239 237 238 236 234 234 237 241 244 247 250 257 264 264 259 259 263 267 270 274 276 274 275 277 278
237 235 232 239 248 257 258 253 246 241 238 236 244 257 260 265 260 253 245 244 244 244 240 237 240 244 247 248 250 254 258 262 264 265 264 268 271 274 276 277 277 277 278 278
235 234 235 238 245 254 259 256 253 249 244 243 246 255 264 262 256 254 249 249 252 252 248 247 247 248 251 253 256 258 259 261 265 268 269 271 275 277 278 279 279 281 281 281
237 235 236 238 245 253 260 261 258 257 254 251 250 255 265 263 261 262 258 257 256 257 253 255 254 255 258 258 259 259 260 263 267 270 271 271 275 275 276 277 279 281 283 283
237 239 240 241 242 247 254 258 258 258 257 254 256 259 264 260 260 261 262 262 260 258 257 261 263 260 261 263 259 259 262 264 267 269 272 275 277 278 279 280 280 282 285 285
235 238 241 241 243 247 249 255 257 257 256 258 257 261 261 259 261 260 263 264 263 261 260 261 263 263 263 263 262 260 263 267 269 270 272 274 278 280 282 283 283 284 284 284
236 238 238 240 243 246 248 254 257 259 260 259 256 255 257 260 264 264 262 265 266 264 264 263 264 264 265 267 268 265 264 266 268 270 271 274 276 278 282 283 283 285 286 284
237 238 239 241 244 247 247 252 257 259 261 258 257 255 258 260 263 262 261 262 265 266 267 267 266 267 269 271 272 270 267 268 270 273 275 276 276 278 282 284 284 285 285 285
240 241 242 244 246 245 249 253 256 257 257 259 259 260 261 263 265 266 266 265 265 266 266 266 267 268 270 272 272 273 270 271 273 274 276 278 279 282 282 283 284 284 284 284
237 241 244 247 250 250 251 253 255 256 257 259 259 261 262 264 266 267 268 268 268 268 266 266 267 268 269 272 273 276 276 275 273 273 275 279 281 283 284 285 285 285 286 286
237 240 243 246 248 250 251 252 254 255 257 258 259 261 263 264 265 267 270 270 269 268 266 266 266 268 270 272 274 277 277 277 277 276 276 278 280 283 284 285 286 287 288 289
237 239 242 245 247 250 252 253 254 255 257 259 260 261 263 264 266 269 271 271 271 269 268 267 267 268 270 272 273 274 276 276 277 277 277 277 279 281 283 285 286 287 289 290
238 242 245 248 249 250 252 255 255 256 257 259 260 260 260 263 266 269 270 270 270 269 270 270 270 270 271 273 274 275 276 276 277 277 278 278 280 282 284 285 286 287 289 291
Height
5842 5843 5842 5843 5843 5844 5844 5845 5845 5846 5847 5849 5850 5851 5853 5854 5856 5858 5859 5861 5862 5864 5866 5868 5870 5872 5873 5875 5876 5878 5879 5880 5881 5882 5882 5882 5882 5882 5881 5880 5880 5879 5878 5877
5843 5842 5842 5842 5843 5843 5843 5844 5845 5846 5846 5847 5849 5850 5851 5853 5855 5856 5857 5859 5861 5863 5865 5867 5869 5871 5872 5874 5875 5877 5878 5879 5880 5881 5881 5882 5882 5881 5881 5880 5880 5879 5878 5877
5842 5843 5842 5842 5842 5843 5843 5844 5844 5845 5846 5846 5848 5849 5850 5852 5853 5855 5856 5858 5860 5862 5864 5866 5867 5869 5871 5873 5874 5876 5877 5878 5879 5880 5880 5881 5881 5881 5880 5880 5879 5878 5878 5877
5842 5842 5842 5842 5842 5843 5843 5844 5844 5845 5845 5846 5848 5848 5849 5850 5852 5853 5855 5856 5858 5860 5862 5864 5866 5868 5870 5872 5873 5875 5876 5877 5878 5879 5879 5880 5880 5880 5880 5879 5879 5878 5877 5876
5842 5842 5842 5842 5843 5843 5843 5844 5844 5845 5845 5846 5847 5848 5849 5849 5851 5852 5854 5855 5857 5859 5861 5863 5865 5867 5869 5871 5872 5874 5875 5876 5877 5878 5878 5879 5879 5879 5879 5879 5878 5878 5877 5876
5842 5842 5842 5842 5843 5843 5844 5844 5844 5845 5845 5846 5847 5848 5849 5849 5850 5851 5852 5854 5856 5857 5859 5861 5863 5865 5867 5869 5871 5872 5874 5875 5875 5876 5877 5877 5877 5878 5878 5878 5877 5877 5876 5876
5841 5841 5842 5842 5843 5843 5844 5844 5845 5845 5846 5846 5847 5847 5848 5848 5849 5850 5851 5853 5854 5856 5858 5860 5862 5864 5866 5868 5869 5871 5872 5873 5874 5875 5875 5876 5876 5876 5876 5876 5876 5876 5876 5875
5840 5841 5842 5842 5842 5843 5843 5844 5846 5846 5846 5847 5847 5847 5848 5848 5849 5849 5850 5851 5853 5855 5856 5858 5860 5862 5864 5866 5867 5869 5870 5871 5872 5873 5873 5874 5874 5875 5875 5875 5875 5875 5874 5874
5840 5841 5841 5841 5842 5843 5843 5843 5845 5846 5846 5847 5847 5847 5847 5847 5848 5849 5849 5850 5852 5853 5855 5857 5859 5860 5862 5864 5865 5867 5868 5869 5870 5871 5871 5872 5872 5873 5873 5873 5873 5873 5873 5873
5839 5839 5840 5840 5841 5842 5843 5843 5844 5845 5846 5846 5846 5846 5847 5847 5847 5848 5849 5849 5851 5852 5853 5855 5857 5859 5860 5862 5863 5865 5866 5867 5867 5868 5869 5870 5870 5871 5871 5871 5871 5871 5871 5871
5837 5838 5839 5840 5840 5841 5842 5843 5843 5844 5845 5845 5845 5847 5846 5846 5847 5847 5848 5848 5850 5851 5852 5854 5855 5857 5858 5860 5861 5862 5863 5864 5865 5866 5867 5868 5868 5869 5869 5869 5869 5869 5869 5869
5836 5837 5837 5839 5839 5840 5841 5841 5842 5844 5844 5844 5845 5848 5845 5845 5845 5846 5846 5847 5848 5850 5851 5852 5854 5855 5857 5858 5859 5860 5861 5862 5863 5864 5865 5865 5866 5867 5867 5867 5867 5867 5867 5867
5834 5836 5837 5838 5839 5839 5839 5840 5841 5842 5843 5843 5844 5846 5844 5844 5844 5845 5845 5846 5847 5848 5850 5851 5852 5853 5855 5856 5857 5858 5859 5860 5860 5861 5862 5863 5864 5864 5865 5865 5865 5865 5865 5864
5832 5834 5835 5837 5836 5836 5837 5838 5839 5840 5841 5842 5842 5842 5842 5843 5843 5844 5844 5845 5846 5847 5848 5849 5851 5852 5853 5854 5855 5856 5857 5858 5858 5859 5860 5861 5861 5862 5862 5862 5862 5862 5861 5861
5830 5831 5832 5833 5834 5834 5835 5836 5837 5838 5839 5840 5840 5840 5840 5841 5842 5842 5843 5844 5845 5845 5846 5848 5849 5850 5851 5852 5853 5853 5854 5855 5856 5857 5857 5858 5858 5858 5858 5858 5858 5858 5858 5857
5826 5828 5829 5830 5831 5832 5833 5834 5835 5836 5837 5837 5838 5838 5839 5839 5840 5840 5841 5842 5843 5844 5844 5845 5846 5847 5848 5849 5850 5851 5852 5852 5853 5854 5854 5855 5855 5855 5855 5855 5855 5855 5854 5853
5823 5825 5826 5828 5829 5830 5831 5832 5832 5833 5834 5835 5835 5837 5836 5837 5838 5838 5839 5840 5841 5841 5842 5843 5844 5844 5845 5846 5847 5848 5848 5849 5850 5851 5851 5851 5851 5851 5852 5851 5851 5850 5850 5849
5819 5821 5823 5824 5827 5827 5831 5829 5830 5831 5831 5832 5833 5833 5834 5834 5835 5836 5837 5837 5838 5839 5839 5840 5841 5841 5842 5843 5843 5844 5845 5846 5846 5847 5847 5847 5848 5848 5847 5847 5847 5846 5845 5845
5816 5818 5819 5821 5822 5824 5826 5826 5827 5828 5829 5829 5830 5830 5831 5832 5832 5833 5834 5835 5836 5836 5837 5837 5838 5838 5839 5839 5840 5840 5841 5842 5842 5843 5843 5843 5843 5843 5843 5843 5842 5842 5841 5840
5811 5813 5816 5817 5819 5821 5823 5823 5823 5826 5826 5826 5827 5827 5828 5829 5830 5832 5832 5832 5833 5833 5834 5834 5835 5835 5835 5836 5836 5837 5837 5838 5838 5839 5839 5839 5839 5839 5838 5838 5837 5837 5836 5835
5806 5808 5810 5812 5814 5816 5819 5819 5821 5823 5824 5823 5823 5824 5825 5826 5827 5828 5828 5829 5830 5830 5831 5831 5831 5832 5832 5832 5832 5833 5833 5833 5834 5834 5834 5834 5834 5834 5833 5833 5833 5832 5831 5830
5801 5803 5806 5808 5810 5814 5814 5815 5817 5819 5818 5819 5820 5821 5821 5822 5823 5824 5825 5825 5826 5826 5827 5827 5828 5828 5828 5828 5828 5829 5829 5829 5829 5829 5829 5829 5829 5829 5828 5828 5827 5826 5825 5825
5795 5799 5801 5804 5807 5808 5809 5810 5812 5813 5814 5815 5816 5817 5818 5818 5819 5820 5821 5821 5822 5822 5823 5823 5823 5824 5824 5824 5824 5824 5824 5824 5825 5825 5824 5824 5824 5823 5823 5822 5821 5821 5820 5819
5790 5793 5795 5797 5800 5802 5803 5805 5806 5808 5809 5810 5811 5812 5813 5814 5815 5815 5816 5817 5817 5817 5818 5818 5819 5819 5819 5820 5820 5820 5820 5819 5819 5819 5819 5819 5818 5818 5817 5816 5815 5814 5813 5812
5783 5786 5788 5791 5794 5796 5797 5799 5800 5802 5804 5805 5806 5807 5808 5809 5810 5811 5811 5812 5812 5813 5813 5813 5814 5814 5814 5814 5815 5814 5814 5814 5814 5814 5813 5813 5812 5812 5811 5810 5809 5808 5807 5806
5776 5779 5782 5785 5787 5789 5790 5792 5794 5796 5798 5799 5800 5802 5803 5803 5804 5805 5806 5806 5807 5807 5807 5808 5808 5808 5808 5808 5808 5808 5808 5808 5808 5808 5807 5807 5806 5805 5804 5804 5803 5801 5800 5798